TimeCST,TemperatureF,Dew PointF,Humidity,Sea Level PressureIn,VisibilityMPH,Wind Direction,Wind SpeedMPH,Gust SpeedMPH,PrecipitationIn,Events,Conditions,WindDirDegrees,DateUTC
12:15 AM,15.8,12.2,86,30.41,10.0,Calm,Calm,-,N/A,,Clear,0,2013-01-15 06:15:00
12:35 AM,15.8,12.2,86,30.41,10.0,North,3.5,-,N/A,,Clear,10,2013-01-15 06:35:00
12:55 AM,15.8,12.2,86,30.41,10.0,Calm,Calm,-,N/A,,Clear,0,2013-01-15 06:55:00
1:15 AM,15.8,12.2,86,30.41,10.0,Calm,Calm,-,N/A,,Clear,0,2013-01-15 07:15:00
1:35 AM,15.8,12.2,86,30.41,10.0,Calm,Calm,-,N/A,,Clear,0,2013-01-15 07:35:00
1:55 AM,14.0,12.2,93,30.40,10.0,North,3.5,-,N/A,,Clear,10,2013-01-15 07:55:00
2:15 AM,14.0,12.2,93,30.40,10.0,North,3.5,-,N/A,,Clear,10,2013-01-15 08:15:00
2:35 AM,14.0,12.2,93,30.40,10.0,North,4.6,-,N/A,,Clear,10,2013-01-15 08:35:00
2:55 AM,14.0,12.2,93,30.40,10.0,North,3.5,-,N/A,,Clear,10,2013-01-15 08:55:00
3:15 AM,12.2,12.2,100,30.39,10.0,NNE,3.5,-,N/A,,Clear,30,2013-01-15 09:15:00
3:35 AM,14.0,12.2,93,30.39,10.0,Calm,Calm,-,N/A,,Clear,0,2013-01-15 09:35:00
3:55 AM,12.2,12.2,100,30.37,10.0,NNE,3.5,-,N/A,,Clear,30,2013-01-15 09:55:00
4:15 AM,12.2,12.2,100,30.37,10.0,Calm,Calm,-,N/A,,Clear,0,2013-01-15 10:15:00
4:35 AM,14.0,12.2,93,30.37,10.0,NNE,3.5,-,N/A,,Clear,30,2013-01-15 10:35:00
4:55 AM,12.2,10.4,92,30.37,10.0,NNE,4.6,-,N/A,,Clear,30,2013-01-15 10:55:00
5:15 AM,32.0,10.4,41,30.36,10.0,NNE,3.5,-,N/A,,Clear,30,2013-01-15 11:15:00
5:35 AM,12.2,10.4,92,30.36,10.0,NNE,4.6,-,N/A,,Clear,30,2013-01-15 11:35:00
5:55 AM,12.2,10.4,92,30.36,10.0,NE,4.6,-,N/A,,Clear,40,2013-01-15 11:55:00
6:15 AM,12.2,10.4,92,30.36,10.0,NE,3.5,-,N/A,,Clear,40,2013-01-15 12:15:00
6:35 AM,12.2,10.4,92,30.35,10.0,NE,4.6,-,N/A,,Clear,40,2013-01-15 12:35:00
6:55 AM,14.0,12.2,93,30.37,10.0,NE,3.5,-,N/A,,Clear,40,2013-01-15 12:55:00
7:15 AM,14.0,10.4,86,30.37,7.0,North,5.8,-,N/A,,Clear,360,2013-01-15 13:15:00
7:35 AM,14.0,10.4,86,30.39,7.0,North,3.5,-,N/A,,Clear,10,2013-01-15 13:35:00
7:55 AM,14.0,12.2,93,30.40,7.0,NNE,4.6,-,N/A,,Clear,20,2013-01-15 13:55:00
8:15 AM,14.0,12.2,93,30.41,7.0,Calm,Calm,-,N/A,,Clear,0,2013-01-15 14:15:00
8:35 AM,15.8,12.2,86,30.41,7.0,North,3.5,-,N/A,,Clear,10,2013-01-15 14:35:00
8:55 AM,17.6,15.8,93,30.41,7.0,NE,4.6,-,N/A,,Clear,50,2013-01-15 14:55:00
9:15 AM,19.4,15.8,86,30.38,10.0,NE,6.9,-,N/A,,Clear,50,2013-01-15 15:15:00
9:35 AM,21.2,15.8,80,30.36,7.0,NE,8.1,-,N/A,,Clear,50,2013-01-15 15:35:00
9:55 AM,21.2,15.8,80,30.36,10.0,NE,9.2,-,N/A,,Clear,50,2013-01-15 15:55:00
10:15 AM,21.2,17.6,86,30.35,10.0,NE,6.9,-,N/A,,Clear,50,2013-01-15 16:15:00
10:35 AM,24.8,17.6,74,30.34,10.0,NE,10.4,-,N/A,,Clear,50,2013-01-15 16:35:00
10:55 AM,24.8,17.6,74,30.32,10.0,ENE,8.1,-,N/A,,Clear,60,2013-01-15 16:55:00
11:15 AM,24.8,17.6,74,30.32,10.0,NE,6.9,-,N/A,,Clear,40,2013-01-15 17:15:00
11:35 AM,24.8,17.6,74,30.31,10.0,NNE,9.2,-,N/A,,Clear,30,2013-01-15 17:35:00
11:55 AM,24.8,17.6,74,30.31,10.0,NE,9.2,-,N/A,,Clear,40,2013-01-15 17:55:00
12:15 PM,24.8,19.4,80,30.30,10.0,NNE,6.9,-,N/A,,Clear,30,2013-01-15 18:15:00
12:35 PM,24.8,19.4,80,30.30,10.0,NE,6.9,-,N/A,,Clear,50,2013-01-15 18:35:00
12:55 PM,26.6,19.4,74,30.30,10.0,NE,8.1,-,N/A,,Clear,40,2013-01-15 18:55:00
1:15 PM,26.6,19.4,74,30.27,10.0,NE,8.1,-,N/A,,Clear,50,2013-01-15 19:15:00
1:35 PM,26.6,19.4,74,30.26,10.0,ENE,9.2,-,N/A,,Clear,60,2013-01-15 19:35:00
1:55 PM,26.6,19.4,74,30.26,10.0,ENE,8.1,-,N/A,,Clear,60,2013-01-15 19:55:00
2:15 PM,26.6,19.4,74,30.27,10.0,NNE,6.9,-,N/A,,Clear,30,2013-01-15 20:15:00
2:35 PM,28.4,21.2,74,30.26,10.0,NNE,10.4,-,N/A,,Clear,30,2013-01-15 20:35:00
2:55 PM,28.4,21.2,74,30.27,10.0,NNE,8.1,-,N/A,,Scattered Clouds,20,2013-01-15 20:55:00
3:15 PM,28.4,21.2,74,30.26,10.0,North,8.1,-,N/A,,Scattered Clouds,360,2013-01-15 21:15:00
3:35 PM,26.6,21.2,80,30.26,10.0,NNE,8.1,-,N/A,,Scattered Clouds,20,2013-01-15 21:35:00
3:55 PM,26.6,21.2,80,30.26,10.0,North,9.2,-,N/A,,Scattered Clouds,10,2013-01-15 21:55:00
4:15 PM,26.6,21.2,80,30.25,10.0,North,9.2,-,N/A,,Scattered Clouds,360,2013-01-15 22:15:00
4:35 PM,26.6,21.2,80,30.24,10.0,North,10.4,-,N/A,,Scattered Clouds,360,2013-01-15 22:35:00
4:55 PM,26.6,21.2,80,30.22,10.0,North,9.2,-,N/A,,Mostly Cloudy,360,2013-01-15 22:55:00
5:15 PM,26.6,21.2,80,30.22,10.0,North,10.4,-,N/A,,Mostly Cloudy,10,2013-01-15 23:15:00
5:35 PM,26.6,21.2,80,30.21,10.0,North,8.1,-,N/A,,Overcast,10,2013-01-15 23:35:00
5:55 PM,26.6,21.2,80,30.21,10.0,North,8.1,-,N/A,,Overcast,10,2013-01-15 23:55:00
6:15 PM,26.6,21.2,80,30.21,10.0,North,10.4,-,N/A,,Overcast,10,2013-01-16 00:15:00
6:35 PM,26.6,21.2,80,30.21,10.0,NNE,6.9,-,N/A,,Overcast,20,2013-01-16 00:35:00
6:55 PM,26.6,21.2,80,30.20,10.0,NNE,8.1,-,N/A,,Overcast,30,2013-01-16 00:55:00
7:15 PM,26.6,21.2,80,30.21,10.0,North,8.1,-,N/A,,Overcast,10,2013-01-16 01:15:00
7:35 PM,26.6,21.2,80,30.20,10.0,NNE,8.1,-,N/A,,Overcast,20,2013-01-16 01:35:00
7:55 PM,26.6,21.2,80,30.19,10.0,North,6.9,-,N/A,,Overcast,10,2013-01-16 01:55:00
8:15 PM,26.6,21.2,80,30.18,10.0,NNE,6.9,-,N/A,,Overcast,20,2013-01-16 02:15:00
8:35 PM,24.8,21.2,86,30.18,10.0,NNE,8.1,-,N/A,,Overcast,30,2013-01-16 02:35:00
8:55 PM,24.8,21.2,86,30.18,10.0,North,6.9,-,N/A,,Mostly Cloudy,10,2013-01-16 02:55:00
9:15 PM,24.8,21.2,86,30.18,10.0,North,5.8,-,N/A,,Scattered Clouds,360,2013-01-16 03:15:00
9:35 PM,24.8,21.2,86,30.18,10.0,North,6.9,-,N/A,,Mostly Cloudy,360,2013-01-16 03:35:00
9:55 PM,24.8,21.2,86,30.16,10.0,North,5.8,-,N/A,,Overcast,360,2013-01-16 03:55:00
10:15 PM,24.8,21.2,86,30.15,10.0,North,6.9,-,N/A,,Overcast,10,2013-01-16 04:15:00
10:35 PM,-9999,21.2,N/A,30.14,10.0,NNE,5.8,-,N/A,,Overcast,30,2013-01-16 04:35:00
10:55 PM,24.8,21.2,86,30.12,10.0,NNE,3.5,-,N/A,,Overcast,30,2013-01-16 04:55:00
11:35 PM,23.0,21.2,93,3.01,10.0,Calm,Calm,-,N/A,,Scattered Clouds,0,2013-01-16 05:35:00
11:55 PM,23.0,21.2,93,30.12,7.0,North,4.6,-,N/A,,Scattered Clouds,350,2013-01-16 05:55:00